Terminal Aerodrome Forecast
Issued by NWS Houston/Galveston, TX

Home | Current Version | Previous Version | Text Only | Print | Product List | Glossary On
Versions: 1 2 3 4 5 6 7 8 9 10 11 12 13 14 15 16 17 18 19 20
000
FTUS44 KHGX 240201 AAA
TAFGLS
TAF AMD
KGLS 240201Z 2402/2424 13012KT P6SM FEW009
     FM240500 16013KT P6SM SCT015
      TEMPO 2409/2412 P6SM BKN015
     FM241500 16015KT P6SM SCT025=

USA.gov is the U.S. government's official web portal to all federal, state and local government web resources and services.